Date String (YYYY-MM-DD hh:mm:ss) UTC,Instrument flags,Ambient pressure (hPa),Sample flow (lpm),Bypass flow (lpm),Sample temperature (°C),Ambient temperature (°C),ASC tube jacket temperature (°C),LED temperature (°C),Box temperature (°C),Sample RH (%),Mass concentration (μg/m³),Mass concentration (μg/m³)
DateTimeUTC,F1_M11,P_M11,Q1_M11,Q2_M11,T1_M11,T2_M11,T3_M11,T4_M11,T5_M11,U1_M11,X0_M11,X2_M11
2021-08-15 08:00:00,,0830.4,5.00,0.00,29.4,28.4,00.0,38.4,31.3,22.2,0022.29,0011.80
2021-08-15 08:01:00,,0830.3,4.99,0.00,29.5,28.5,00.0,38.4,31.3,22.2,0021.87,0011.74
2021-08-15 08:02:00,,0830.4,5.01,0.00,29.5,28.6,00.0,38.5,31.3,22.2,0021.16,0011.64
2021-08-15 08:03:00,,0830.4,5.01,0.00,29.5,28.6,00.0,38.5,31.4,22.2,0021.10,0011.64
2021-08-15 08:04:00,,0830.4,5.00,0.00,29.6,28.7,00.0,38.5,31.4,22.1,0020.65,0011.71
2021-08-15 08:05:00,,0830.4,5.00,0.00,29.6,28.7,00.0,38.5,31.5,22.1,0019.71,0011.79
2021-08-15 08:06:00,,0830.4,5.00,0.00,29.7,28.8,00.0,38.6,31.5,22.0,0019.50,0011.77
2021-08-15 08:07:00,,0830.5,5.00,0.00,29.7,28.8,00.0,38.6,31.5,21.6,0019.55,0011.72
2021-08-15 08:08:00,,0830.6,5.01,0.00,29.7,28.9,00.0,38.6,31.6,21.5,0018.34,0011.68
2021-08-15 08:09:00,,0830.6,5.00,0.00,29.7,28.0,00.0,38.6,31.3,21.2,0017.98,0011.55
2021-08-15 08:10:00,,0830.6,4.99,0.00,29.6,26.1,00.0,38.6,30.8,21.3,0017.38,0011.42
2021-08-15 08:11:00,,0830.7,5.02,0.00,29.4,25.5,00.0,38.6,30.6,22.7,0017.09,0011.34
2021-08-15 08:12:00,,0830.7,5.01,0.00,29.3,25.9,00.0,38.5,30.7,24.0,0017.27,0011.32
2021-08-15 08:13:00,,0830.7,4.99,0.00,29.2,26.3,00.0,38.5,30.8,24.2,0018.69,0011.38
2021-08-15 08:14:00,,0830.7,5.00,0.00,29.2,26.7,00.0,38.4,30.9,24.0,0020.18,0011.38
2021-08-15 08:15:00,,0830.8,5.01,0.00,29.2,27.1,00.0,38.4,30.9,24.2,0019.87,0011.28
2021-08-15 08:16:00,,0830.8,5.01,0.00,29.2,27.4,00.0,38.4,31.0,23.3,0019.82,0011.17
2021-08-15 08:17:00,,0830.8,4.99,0.00,29.3,27.7,00.0,38.4,31.1,22.2,0020.54,0011.14
2021-08-15 08:18:00,,0830.8,4.99,0.00,29.3,27.9,00.0,38.4,31.1,23.6,0021.50,0011.12
2021-08-15 08:19:00,,0830.7,5.01,0.00,29.3,28.1,00.0,38.4,31.1,24.2,0022.52,0011.11
2021-08-15 08:20:00,,0830.6,5.00,0.00,29.4,28.2,00.0,38.4,31.2,24.1,0022.85,0011.22
2021-08-15 08:21:00,,0830.6,5.01,0.00,29.4,28.3,00.0,38.4,31.3,23.9,0022.90,0011.30
2021-08-15 08:22:00,,0830.6,5.00,0.00,29.5,28.4,00.0,38.4,31.3,23.5,0022.94,0011.31
2021-08-15 08:23:00,,0830.6,5.00,0.00,29.5,28.5,00.0,38.5,31.3,23.4,0023.37,0011.32
2021-08-15 08:24:00,,0830.5,4.98,0.00,29.5,28.6,00.0,38.5,31.4,23.4,0022.53,0011.28
2021-08-15 08:25:00,,0830.5,5.02,0.00,29.6,28.7,00.0,38.5,31.4,23.3,0021.63,0011.34
2021-08-15 08:26:00,,0830.6,4.99,0.00,29.6,28.7,00.0,38.5,31.5,23.2,0022.20,0011.36
2021-08-15 08:27:00,,0830.6,5.00,0.00,29.6,28.8,00.0,38.6,31.5,23.2,0023.14,0011.43
2021-08-15 08:28:00,,0830.6,5.00,0.00,29.7,28.9,00.0,38.6,31.5,23.5,0023.49,0011.47
2021-08-15 08:29:00,,0830.6,5.00,0.00,29.7,28.9,00.0,38.6,31.6,23.5,0022.97,0011.53
2021-08-15 08:30:00,,0830.5,5.01,0.00,29.8,29.0,00.0,38.6,31.6,23.4,0022.25,0011.60
2021-08-15 08:31:00,,0830.6,4.99,0.00,29.8,29.0,00.0,38.7,31.7,23.2,0021.96,0011.58
2021-08-15 08:32:00,,0830.6,5.01,0.00,29.8,28.8,00.0,38.7,31.7,23.2,0021.92,0011.57
2021-08-15 08:33:00,,0830.5,4.99,0.00,29.8,27.2,00.0,38.7,31.2,23.2,0022.21,0011.65
2021-08-15 08:34:00,,0830.4,5.01,0.00,29.6,26.4,00.0,38.7,31.0,23.3,0022.27,0011.67
2021-08-15 08:35:00,,0830.4,4.99,0.00,29.6,26.7,00.0,38.7,31.1,23.4,0023.36,0011.68
2021-08-15 08:36:00,,0830.4,5.01,0.00,29.5,27.0,00.0,38.6,31.1,23.6,0022.80,0011.59
2021-08-15 08:37:00,,0830.4,5.00,0.00,29.5,27.4,00.0,38.6,31.2,23.6,0022.89,0011.56
2021-08-15 08:38:00,,0830.4,5.00,0.00,29.5,27.7,00.0,38.6,31.2,23.9,0023.56,0011.53
2021-08-15 08:39:00,,0830.4,5.01,0.00,29.5,27.9,00.0,38.6,31.3,24.1,0023.86,0011.56
2021-08-15 08:40:00,,0830.4,4.99,0.00,29.5,28.1,00.0,38.6,31.3,24.3,0023.94,0011.56
2021-08-15 08:41:00,,0830.4,4.99,0.00,29.6,28.3,00.0,38.6,31.3,24.5,0025.47,0011.53
2021-08-15 08:42:00,,0830.4,5.01,0.00,29.6,28.4,00.0,38.6,31.4,24.5,0025.56,0011.53
2021-08-15 08:43:00,,0830.5,5.01,0.00,29.6,28.6,00.0,38.6,31.5,24.4,0027.09,0011.57
2021-08-15 08:44:00,,0830.5,4.99,0.00,29.7,28.7,00.0,38.6,31.5,24.1,0027.46,0011.60
2021-08-15 08:45:00,,0830.6,5.00,0.00,29.7,28.7,00.0,38.7,31.6,23.9,0027.20,0011.58
2021-08-15 08:46:00,,0830.5,4.99,0.00,29.7,28.8,00.0,38.7,31.6,23.4,0026.43,0011.56
2021-08-15 08:47:00,,0830.5,5.00,0.00,29.8,28.9,00.0,38.7,31.6,23.2,0026.69,0011.57
2021-08-15 08:48:00,,0830.4,5.00,0.00,29.8,28.9,00.0,38.8,31.7,23.4,0026.86,0011.58
2021-08-15 08:49:00,,0830.4,5.00,0.00,29.8,29.0,00.0,38.8,31.7,23.1,0025.39,0011.59
2021-08-15 08:50:00,,0830.4,5.00,0.00,29.8,28.1,00.0,38.8,31.4,23.1,0024.03,0011.56
2021-08-15 08:51:00,,0830.4,5.00,0.00,29.6,26.4,00.0,38.7,31.0,23.4,0023.61,0011.50
2021-08-15 08:52:00,,0830.4,5.00,0.00,29.6,26.3,00.0,38.7,30.9,23.7,0022.58,0011.54
2021-08-15 08:53:00,,0830.3,5.00,0.00,29.5,26.6,00.0,38.7,31.0,24.6,0022.56,0011.55
2021-08-15 08:54:00,,0830.4,4.99,0.00,29.4,27.0,00.0,38.7,31.1,24.8,0021.29,0011.53
2021-08-15 08:55:00,,0830.4,5.00,0.00,29.4,27.4,00.0,38.6,31.1,24.9,0020.75,0011.50
2021-08-15 08:56:00,,0830.4,5.01,0.00,29.4,27.6,00.0,38.6,31.2,25.1,0020.53,0011.57
2021-08-15 08:57:00,,0830.4,5.00,0.00,29.5,27.9,00.0,38.6,31.2,25.1,0020.27,0011.57
2021-08-15 08:58:00,,0830.4,4.99,0.00,29.5,28.1,00.0,38.6,31.3,25.3,0020.49,0011.58
2021-08-15 08:59:00,,0830.4,5.00,0.00,29.5,28.2,00.0,38.6,31.3,25.3,0019.35,0011.61
